Regional Weather Roundup
Issued by NWS Albany, NY

Home | Current Version | Previous Version | Text Only | Print | Product List | Glossary On
Versions: 1 2 3 4 5 6 7 8 9 10 11 12 13 14 15 16 17 18 19 20 21 22 23 24 25 26 27 28 29 30 31 32 33 34 35 36 37 38 39 40 41 42 43 44 45 46 47 48 49 50
000
ASUS41 KALY 101710
RWRALY

NEW YORK STATE HOURLY WEATHER ROUNDUP
NATIONAL WEATHER SERVICE ALBANY NY
1200 PM EST SAT DEC 10 2016

NOTE: "FAIR" INDICATES FEW OR NO CLOUDS BELOW 12,000 FEET WITH NO
SIGNIFICANT WEATHER AND/OR NO OBSTRUCTIONS TO VISIBILITY.

NYZ032-033-038>043-046>054-057>066-NYZ062>081-082-084-101800-
EAST


CITY           SKY/WX    TMP DP  RH WIND       PRES   REMARKS
ALBANY         MOSUNNY   27   8  44 NW9       30.34F WCI  18
GLENS FALLS    PTSUNNY   28   4  35 NW8       30.33F WCI  20
POUGHKEEPSIE   CLOUDY    29  13  51 NW7       30.34F WCI  22
NEWBURGH       PTSUNNY   28  18  64 NW14      30.34F WCI  17
MONTGOMERY     PTSUNNY   31  16  54 NW8       30.32F WCI  23
WHITE PLAINS   MOSUNNY   32  14  47 W12       30.32F WCI  23
ISLIP          MOSUNNY   34  14  43 NW17      30.34F WCI  23
NEW YORK CITY  PTSUNNY   35  20  54 NW9       30.37F WCI  28
CENTRAL PARK   PTSUNNY   33  18  53 VRB5      30.38F WCI  29
$$

NYZ005>009-017-018-044>046-055-056-101800-
CENTRAL


CITY           SKY/WX    TMP DP  RH WIND       PRES   REMARKS
FULTON         FLURRIES  26  20  77 VRB3      30.33F
SYRACUSE       FLURRIES  24  20  84 W3        30.33F
ROME           PTSUNNY   21  13  71 CALM      30.35F
ELMIRA         CLOUDY    28  21  75 SW9       30.31  WCI  19
BINGHAMTON     CLOUDY    22  17  81 W5        30.25  WCI  16
MONTICELLO     MOSUNNY   23  16  74 W9G16     30.28F WCI  13
$$

NYZ026>034-041>043-087-101800-
NORTH


CITY           SKY/WX    TMP DP  RH WIND       PRES   REMARKS
WATERTOWN      CLOUDY    23  14  68 CALM      30.35F
FORT DRUM      NOT AVBL
OGDENSBURG     FAIR      26  14  60 NW5       30.34F WCI  20
MASSENA        MOSUNNY   22  12  65 W7        30.35F WCI  13
SARANAC LAKE   CLOUDY    16   4  59 W10G16    30.20F WCI   4
PLATTSBURGH    CLOUDY    24   3  40 VRB6      30.32F WCI  17
$$

NYZ001>004-010>016-019>021-085-101800-
WEST


CITY           SKY/WX    TMP DP  RH WIND       PRES   REMARKS
NIAGARA FALLS  PTSUNNY   31  17  56 W13G21    30.33F WCI  21
BUFFALO        PTSUNNY   31  17  56 W15       30.32F WCI  20
DUNKIRK        CLOUDY    29  16  58 W13G21    30.35F WCI  19
JAMESTOWN      CLOUDY    21  18  86 SW20      30.29F VSB 3/4 WCI   6
WELLSVILLE     LGT SNOW  24  16  71 W9G20     30.26S WCI  14
ROCHESTER      FLURRIES  28  20  71 SW8       30.34F WCI  20
PENN YAN       CLOUDY    27  17  66 SW3       30.30F
$$

             KEY
       WCI = WIND CHILL INDEX
       VSB = VISIBILITY
       HX  = HEAT INDEX
$$



USA.gov is the U.S. government's official web portal to all federal, state and local government web resources and services.